W7OWO-1 Weather Reports


time (UTC)temp
C
wind
direction
speed
KPH
gust
KPH
rain 1hr
cm
rain 24hr
cm
rain mn
cm
humidity
%
barometer
mb
20260507095403 12 359 0.0 3.2 0.00 0.00 0.00 83 1020.9
20260507094504 12 304 0.0 1.6 0.00 0.00 0.00 82 1021.1
20260507093624 12 285 0.0 3.2 0.00 0.00 0.00 82 1021.1
20260507092703 12 243 0.0 1.6 0.00 0.00 0.00 82 1021.1
20260507091803 12 291 1.6 6.4 0.00 0.00 0.00 82 1021.2
20260507090903 12 286 0.0 1.6 0.00 0.00 0.00 83 1021.3
20260507090004 12 276 1.6 3.2 0.00 0.00 0.00 83 1021.4
20260507085403 12 286 1.6 4.8 0.00 0.00 0.00 82 1021.4
20260507084503 12 298 0.0 1.6 0.00 0.00 0.00 82 1021.3
20260507083624 12 321 0.0 3.2 0.00 0.00 0.00 82 1021.3
20260507082703 12 279 0.0 3.2 0.00 0.00 0.00 83 1021.3
20260507081803 12 290 0.0 3.2 0.00 0.00 0.00 83 1021.3
20260507080904 12 279 1.6 3.2 0.00 0.00 0.00 83 1021.3
20260507080024 12 289 1.6 4.8 0.00 0.00 0.00 83 1021.2
20260507075403 12 292 1.6 4.8 0.00 0.00 0.00 83 1021.2
20260507074503 12 277 0.0 3.2 0.00 0.00 0.00 84 1021.2
20260507073603 12 285 1.6 4.8 0.00 0.00 0.00 83 1021.2
20260507072703 12 285 1.6 6.4 0.00 0.00 0.00 83 1021.2
20260507071824 13 284 3.2 6.4 0.00 0.00 0.00 82 1021.2
20260507070924 13 290 1.6 8.0 0.00 0.00 0.00 83 1021.1
20260507070009 13 284 1.6 3.2 0.00 0.00 0.00 83 1021.1
20260507065403 13 289 1.6 4.8 0.00 0.00 0.00 82 1021.1
20260507064503 13 296 1.6 4.8 0.00 0.00 0.00 82 1021.1
20260507063603 13 285 1.6 4.8 0.00 0.00 0.00 82 1021.2
20260507062703 13 165 0.0 4.8 0.00 0.00 0.00 82 1021.2
20260507061803 13 296 1.6 4.8 0.00 0.00 0.00 82 1021.1
20260507060903 13 297 0.0 1.6 0.00 0.00 0.00 84 1021.2
20260507060024 13 285 1.6 4.8 0.00 0.00 0.00 83 1021.0
20260507055424 13 282 3.2 6.4 0.00 0.00 0.00 82 1021.0
20260507054503 14 292 1.6 4.8 0.00 0.00 0.00 81 1021.0
20260507053603 14 285 1.6 6.4 0.00 0.00 0.00 82 1020.9
20260507052703 14 303 1.6 4.8 0.00 0.00 0.00 81 1020.9
20260507051803 15 288 0.0 3.2 0.00 0.00 0.00 80 1020.8
20260507050924 15 296 1.6 4.8 0.00 0.00 0.00 80 1020.9
20260507050003 15 303 1.6 4.8 0.00 0.00 0.00 80 1020.9
20260507045403 15 316 1.6 3.2 0.00 0.00 0.00 80 1020.9
20260507044503 15 81 1.6 4.8 0.00 0.00 0.00 81 1020.9
20260507043603 15 50 3.2 6.4 0.00 0.00 0.00 82 1020.8
20260507042703 15 57 1.6 6.4 0.00 0.00 0.00 83 1020.7
20260507041803 15 51 1.6 1.6 0.00 0.00 0.00 84 1020.6
20260507040903 15 51 1.6 4.8 0.00 0.00 0.00 85 1020.5
20260507040003 15 51 1.6 3.2 0.00 0.00 0.00 85 1020.4
20260507035403 15 0 0.0 0.0 0.00 0.00 0.00 86 1020.3
20260507034524 15 0 0.0 0.0 0.00 0.00 0.00 85 1020.1
20260507033603 15 0 0.0 0.0 0.00 0.00 0.00 82 1020.0
20260507032703 16 51 0.0 1.6 0.00 0.00 0.00 81 1019.8
20260507031803 16 51 0.0 3.2 0.00 0.00 0.00 80 1019.8
20260507030903 16 51 0.0 1.6 0.00 0.00 0.00 79 1019.6
20260507030003 17 55 1.6 4.8 0.00 0.00 0.00 77 1019.6
20260507025403 17 59 3.2 6.4 0.00 0.00 0.00 77 1019.5
20260507024524 17 94 1.6 3.2 0.00 0.00 0.00 76 1019.4
20260507023603 17 94 0.0 3.2 0.00 0.00 0.00 76 1019.3
20260507022703 18 72 3.2 6.4 0.00 0.00 0.00 75 1019.3
20260507021803 18 79 3.2 4.8 0.00 0.00 0.00 73 1019.3
20260507020903 19 86 6.4 12.9 0.00 0.00 0.00 70 1019.3
20260507020003 20 68 3.2 6.4 0.00 0.00 0.00 72 1019.2
20260507015403 20 14 1.6 4.8 0.00 0.00 0.00 72 1019.3
20260507014503 20 78 3.2 4.8 0.00 0.00 0.00 69 1019.3
20260507013602 20 96 1.6 9.7 0.00 0.00 0.00 70 1019.3
20260507012703 20 166 1.6 6.4 0.00 0.00 0.00 67 1019.3
20260507011803 20 258 1.6 4.8 0.00 0.00 0.00 69 1019.2
20260507010003 21 219 4.8 11.3 0.00 0.00 0.00 66 1019.2
20260507005403 21 232 4.8 8.0 0.00 0.00 0.00 67 1019.2
20260507004503 21 228 3.2 9.7 0.00 0.00 0.00 65 1019.1
20260507003603 21 265 4.8 16.1 0.00 0.00 0.00 68 1019.2
20260507002724 21 185 1.6 6.4 0.00 0.00 0.00 68 1019.2
20260507001803 21 247 4.8 11.3 0.00 0.00 0.00 66 1019.2
20260507000903 21 246 3.2 11.3 0.00 0.00 0.00 66 1019.2
20260507000003 22 241 4.8 11.3 0.00 0.00 0.00 65 1019.2
20260506235403 22 263 6.4 12.9 0.00 0.00 0.00 66 1019.2
20260506234504 22 267 6.4 12.9 0.00 0.00 0.00 65 1019.2
20260506233603 22 271 6.4 16.1 0.00 0.00 0.00 69 1019.1
20260506232703 21 245 4.8 9.7 0.00 0.00 0.00 66 1019.2
20260506231824 21 264 3.2 9.7 0.00 0.00 0.00 68 1019.2
20260506230924 21 215 3.2 11.3 0.00 0.00 0.00 69 1019.3
20260506230003 21 222 3.2 6.4 0.00 0.00 0.00 70 1019.4
20260506225403 21 204 3.2 8.0 0.00 0.00 0.00 67 1019.4
20260506224503 21 63 1.6 4.8 0.00 0.00 0.00 72 1019.5
20260506223603 20 149 3.2 9.7 0.00 0.00 0.00 72 1019.6
20260506222703 20 83 8.0 16.1 0.00 0.00 0.00 74 1019.6
20260506221803 20 92 6.4 11.3 0.00 0.00 0.00 71 1019.7
20260506220903 20 89 6.4 16.1 0.00 0.00 0.00 72 1019.8
20260506220004 20 67 8.0 19.3 0.00 0.00 0.00 74 1019.8
20260506215404 20 74 8.0 16.1 0.00 0.00 0.00 73 1019.8
20260506214503 20 118 4.8 12.9 0.00 0.00 0.00 71 1019.7
20260506213603 20 105 8.0 16.1 0.00 0.00 0.00 74 1019.7
20260506212703 19 98 4.8 11.3 0.00 0.00 0.00 73 1020.0
20260506211824 20 92 6.4 12.9 0.00 0.00 0.00 74 1020.0
20260506210903 20 99 4.8 11.3 0.00 0.00 0.00 73 1020.1
20260506210003 20 173 1.6 8.0 0.00 0.00 0.00 74 1020.2
20260506205403 20 113 3.2 9.7 0.00 0.00 0.00 73 1020.3
20260506204503 20 179 6.4 12.9 0.00 0.00 0.00 72 1020.2
20260506203603 20 151 3.2 12.9 0.00 0.00 0.00 74 1020.2
20260506202704 19 291 4.8 12.9 0.00 0.00 0.00 77 1020.1
20260506201803 18 330 4.8 14.5 0.00 0.00 0.00 77 1020.2
20260506200903 18 91 8.0 17.7 0.00 0.00 0.00 76 1020.3
20260506200003 18 93 4.8 12.9 0.00 0.00 0.00 76 1020.4
20260506195403 19 109 4.8 16.1 0.00 0.00 0.00 75 1020.5
20260506194524 18 226 4.8 12.9 0.00 0.00 0.00 77 1020.7
20260506193603 18 79 6.4 12.9 0.00 0.00 0.00 79 1020.6
20260506192724 18 103 3.2 11.3 0.00 0.00 0.00 80 1020.7
20260506191803 18 160 3.2 9.7 0.00 0.00 0.00 78 1020.7
20260506190903 18 159 6.4 14.5 0.00 0.00 0.00 79 1020.6
20260506190003 18 154 4.8 9.7 0.00 0.00 0.00 80 1020.6
20260506185403 17 204 3.2 6.4 0.00 0.00 0.00 78 1020.6
20260506184524 17 115 6.4 19.3 0.00 0.00 0.00 80 1020.5
20260506183603 17 124 4.8 12.9 0.00 0.00 0.00 80 1020.4
20260506182703 18 202 4.8 12.9 0.00 0.00 0.00 78 1020.5
20260506181803 17 280 4.8 12.9 0.00 0.00 0.00 81 1020.6
20260506180903 17 259 6.4 12.9 0.00 0.00 0.00 81 1020.7
20260506180004 17 258 6.4 16.1 0.00 0.00 0.00 82 1020.7
20260506175403 16 76 3.2 8.0 0.00 0.00 0.00 83 1020.8
20260506174503 16 269 6.4 14.5 0.00 0.00 0.00 83 1020.7
20260506173624 16 210 3.2 8.0 0.00 0.00 0.00 83 1020.6
20260506172703 16 246 3.2 6.4 0.00 0.00 0.00 83 1020.5
20260506171803 16 223 3.2 11.3 0.00 0.00 0.00 84 1020.3
20260506170903 15 238 3.2 4.8 0.00 0.00 0.00 87 1020.5
20260506170003 15 214 3.2 6.4 0.00 0.00 0.00 87 1020.6
20260506165403 15 218 1.6 6.4 0.00 0.00 0.00 85 1020.7
20260506164503 15 180 1.6 3.2 0.00 0.00 0.00 86 1020.7
20260506163603 15 77 3.2 4.8 0.00 0.00 0.00 86 1020.7
20260506162703 15 233 0.0 3.2 0.00 0.00 0.00 88 1020.7
20260506161803 14 308 1.6 6.4 0.00 0.00 0.00 89 1020.7
20260506160903 14 94 1.6 3.2 0.00 0.00 0.00 88 1020.5
20260506160003 13 229 1.6 4.8 0.00 0.00 0.00 89 1020.5
20260506155403 13 112 1.6 8.0 0.00 0.00 0.00 90 1020.4
20260506154503 13 125 3.2 8.0 0.00 0.00 0.00 90 1020.2
20260506153624 13 119 4.8 12.9 0.00 0.00 0.00 91 1019.8
20260506152703 13 118 4.8 11.3 0.00 0.00 0.00 91 1020.2
20260506151803 13 66 1.6 3.2 0.00 0.00 0.00 93 1020.4
20260506150903 13 282 0.0 1.6 0.00 0.00 0.00 92 1020.7
20260506150003 13 282 0.0 3.2 0.00 0.00 0.00 94 1020.7
20260506145403 13 262 1.6 4.8 0.00 0.00 0.00 93 1020.7
20260506144503 13 264 1.6 4.8 0.00 0.00 0.00 93 1020.7
20260506143603 13 273 3.2 4.8 0.00 0.00 0.00 93 1020.5
20260506142703 13 266 1.6 4.8 0.00 0.00 0.00 92 1020.3
20260506141803 12 270 1.6 4.8 0.00 0.00 0.00 94 1020.0
20260506140903 12 225 0.0 1.6 0.00 0.00 0.00 94 1019.7
20260506140003 12 224 1.6 3.2 0.00 0.00 0.00 94 1019.6
20260506135424 12 207 0.0 3.2 0.00 0.00 0.00 94 1019.5
20260506134503 12 153 0.0 3.2 0.00 0.00 0.00 95 1019.6
20260506133603 12 298 1.6 3.2 0.00 0.00 0.00 95 1019.5
20260506132703 12 250 1.6 6.4 0.00 0.00 0.00 94 1019.5
20260506131803 12 9 0.0 1.6 0.00 0.00 0.00 94 1019.3
20260506130903 12 265 1.6 3.2 0.00 0.00 0.00 94 1019.3
20260506130004 12 74 1.6 3.2 0.00 0.00 0.00 94 1019.0
20260506125403 12 74 0.0 3.2 0.00 0.00 0.00 94 1019.1
20260506124503 12 59 1.6 3.2 0.00 0.00 0.00 94 1019.1
20260506123603 12 83 3.2 4.8 0.00 0.00 0.00 94 1018.9
20260506122703 12 85 4.8 6.4 0.00 0.00 0.00 94 1019.0
20260506121803 12 74 1.6 4.8 0.00 0.00 0.00 94 1019.0
20260506120903 12 68 3.2 4.8 0.00 0.00 0.00 94 1019.1
20260506120003 13 53 3.2 4.8 0.00 0.00 0.00 94 1019.1
20260506115403 13 53 1.6 3.2 0.00 0.00 0.00 94 1019.0
20260506114503 13 53 1.6 3.2 0.00 0.00 0.00 94 1018.8
20260506113603 13 56 1.6 4.8 0.00 0.00 0.00 94 1018.7
20260506112703 13 71 1.6 3.2 0.00 0.00 0.00 94 1018.6
20260506111803 13 71 1.6 3.2 0.00 0.00 0.00 94 1018.6
20260506110903 13 71 3.2 4.8 0.00 0.00 0.00 94 1018.5
20260506110003 13 71 1.6 3.2 0.00 0.00 0.00 94 1018.4
20260506105403 13 85 1.6 4.8 0.00 0.00 0.00 94 1018.2
20260506104504 13 203 1.6 3.2 0.00 0.00 0.00 94 1018.1
20260506103603 13 203 1.6 3.2 0.00 0.00 0.00 94 1018.0
20260506102703 13 203 1.6 3.2 0.00 0.00 0.00 95 1017.9
20260506101803 13 203 1.6 3.2 0.00 0.00 0.00 95 1017.8
20260506100924 13 203 1.6 3.2 0.00 0.00 0.00 95 1017.7
20260506100024 13 203 0.0 1.6 0.00 0.00 0.00 95 1017.7